Location: Riverton
(43.0250°N, 108.3790°W)
Time: 03:11:19
(UTC-06:00)

JAS-2 - Visible Passes

Search period start: 23 July 2016 00:00
Search period end: 02 August 2016 00:00
Orbit: 799 x 1322 km, 98.6° (Epoch: 22 July)

Date Brightness Start Highest point End Pass type
(mag) Time Alt. Az. Time Alt. Az. Time Alt. Az.
23 Jul 10.8 00:45:19 10° NE 00:48:58 21° E 00:48:58 21° E visible
23 Jul 9.6 02:29:37 10° N 02:34:37 49° WNW 02:35:26 45° W visible
24 Jul 9.4 01:34:23 10° NNE 01:39:33 57° E 01:39:36 57° ESE visible
24 Jul 10.9 03:20:42 10° NNW 03:24:19 19° WNW 03:26:05 16° W visible
25 Jul 10.9 00:40:24 10° NE 00:43:47 19° E 00:43:47 19° E visible
25 Jul 9.5 02:24:30 10° N 02:29:35 53° WNW 02:30:16 50° W visible
26 Jul 9.5 01:29:20 10° NNE 01:34:26 53° E 01:34:26 53° E visible
26 Jul 10.8 03:15:28 10° NNW 03:19:19 21° WNW 03:20:55 18° W visible
27 Jul 11.0 00:35:28 10° NE 00:38:37 18° E 00:38:37 18° E visible
27 Jul 9.4 02:19:23 10° N 02:24:33 58° WNW 02:25:05 55° W visible
28 Jul 9.7 01:24:19 10° NNE 01:29:16 49° E 01:29:16 49° E visible
28 Jul 10.7 03:10:16 10° NNW 03:14:20 23° WNW 03:15:45 21° W visible
29 Jul 11.1 00:30:34 10° NE 00:33:27 17° E 00:33:27 17° E visible
29 Jul 9.3 02:14:17 10° N 02:19:32 63° WNW 02:19:55 61° W visible
30 Jul 9.8 01:19:16 10° NNE 01:24:06 45° E 01:24:06 45° E visible
30 Jul 10.6 03:05:04 10° NNW 03:09:21 25° WNW 03:10:35 23° W visible
31 Jul 11.2 00:25:41 10° NE 00:28:17 16° E 00:28:17 16° E visible
31 Jul 9.3 02:09:11 10° N 02:14:31 69° WNW 02:14:46 68° W visible
01 Aug 10.0 01:14:13 10° NNE 01:18:57 42° E 01:18:57 42° E visible
01 Aug 10.5 02:59:52 10° N 03:04:20 27° WNW 03:05:25 26° W visible
